Regional Weather Roundup
Issued by NWS Wakefield, VA

Home | Current Version | Previous Version | Graphics & Text | Print | Product List | Glossary On
Versions: 1 2 3 4 5 6 7 8 9 10 11 12 13 14 15 16 17 18 19 20 21 22 23 24 25 26 27 28 29 30 31 32 33 34 35 36 37 38 39 40 41 42 43 44 45 46 47 48 49 50
000
ASUS41 KAKQ 112215
RWRAKQ

REGIONAL WEATHER ROUNDUP
NATIONAL WEATHER SERVICE WAKEFIELD VA
500 PM EST THU FEB 11 2016

Note: "fair" indicates few or no clouds below 12,000 feet with no
significant weather and/or obstructions to visibility. * = Denotes
station may not report precipitation (e.g., rain,snow,etc.),
thunder or fog.

VAZ042-051-052>054-056-112300-
NORTHERN VIRGINIA

CITY           SKY/WX    TMP DP  RH WIND       PRES   REMARKS
WASH NATIONAL  FAIR      28   0  29 W14G21    30.20R WCI  17
DULLES         FAIR      25   0  33 NW23      30.19R WCI  10
FORT BELVOIR   FAIR      28  -1  28 NW13G23   30.19R WCI  17
QUANTICO       FAIR      31   0  26 NW16G29   30.20R WCI  20
FREDERICKSBRG* FAIR      31   2  29 NW12G21   30.18R WCI  22
STAFFORD*      FAIR      29  -1  27 NW14G22   30.22R WCI  18
WARRENTON      FAIR      29   5  36 W14G23    30.18R WCI  18
CULPEPER*      FAIR      28  -2  27 NW12      30.20R WCI  17
MANASSAS*      CLEAR     27   3  36 NW13G22   30.20R WCI  16
LEESBURG*      MOCLDY    28   7  40 W18       30.20R WCI  16
WINCHESTER     CLOUDY    27   1  33 W14G23    30.18R WCI  15
FRONT ROYAL*   FAIR      23   0  36 W12G21    30.17R WCI  12
LURAY*         FAIR      25   0  33 W3        30.17R
$$

VAZ048-049-060>072-079>083-112300-
CENTRAL AND SOUTH CENTRAL VIRGINIA

CITY           SKY/WX    TMP DP  RH WIND       PRES   REMARKS
RICHMOND       FAIR      33   0  24 W15       30.16R WCI  23
CHESTERFIELD*  FAIR      34   0  23 NW14G22   30.18R WCI  24
PETERSBURG*    FAIR      35 -14  11 W10       30.17R
HANOVER        FAIR      32   0  25 W13       30.17R WCI  22
TAPPAHANNOCK*  FAIR      33   0  24 W12G18    30.16R WCI  24
QUINTON*       FAIR      33   1  26 W8G16     30.16R
CHARLOTTSVILLE FAIR      29  -3  25 VRB7G20   30.16R
GORDONSVILLE*  FAIR      29  -2  25 NW8       30.17R
ORANGE*        FAIR      30   0  27 W8        30.18R
LOUISA*        FAIR      32   0  25 NW13G21   30.15R WCI  22
BUMPASS*       FAIR      31  -2  23 NW7       30.16R
FARMVILLE*     FAIR      34  -4  19 CALM      30.16R
CREWE*         FAIR      32   1  26 W7        30.16R
FORT PICKETT*  NOT AVBL
CHASE CITY*    FAIR      34  -2  21 W8        30.17R
CLARKSVILLE*   FAIR      36   3  25 NW8       30.17R
SOUTH HILL*    FAIR      34   2  25 W9G17     30.22R
LAWRENCEVILLE* FAIR      35   0  23 W6        30.16R
EMPORIA*       FAIR      34   1  25 W7        30.19R
$$

VAZ088>098-112300-
SOUTHEAST VIRGINIA

CITY           SKY/WX    TMP DP  RH WIND       PRES   REMARKS
NORFOLK        FAIR      35   4  27 NW9G16    30.16R
VIRGINIA BEACH FAIR      38   4  24 NW8       30.16R
NORFOLK NAVAL  FAIR      35   5  28 NW17      30.18R WCI  25
WEST POINT*    FAIR      33   0  24 W9G18     30.18R
SALUDA*        FAIR      32   1  26 W9        30.16R
NEWPORT NEWS   FAIR      34   5  29 NW12      30.16R
LANGLEY AFB    FAIR      33   5  30 W12       30.15R WCI  24
FORT EUSTIS    FAIR      34   6  31 NW14      30.14R WCI  24
WILLIAMSBURG*  FAIR      37   7  28 NW8       30.17R
HR EXEC AP*    FAIR      36   5  27 NW6       30.18R
FRANKLIN*      FAIR      35   2  24 NW12G18   30.17R
US460-WAKEFLD  FAIR      36   1  22 W13G21    30.16R
$$

VAZ020-022-025-037-045-112300-
WEST CENTRAL AND SOUTHWEST VIRGINIA

CITY           SKY/WX    TMP DP  RH WIND       PRES   REMARKS
STAUNTON*      FAIR      29   0  29 NW10G16   30.16R WCI  20
WAYNESBORO*    FAIR      25  -5  26 NW8       30.12R
HOT SPRINGS VA FAIR      14  -1  52 NW15G23   29.94R WCI  -1
LYNCHBURG      FAIR      29  -1  27 W8G17     30.17R
DANVILLE       FAIR      38   1  21 NW8       30.16R
SOUTH BOSTON*  FAIR      35  -3  19 NW8       30.17R
MARTINSVILLE   FAIR      34  -2  21 NW10G16   30.17R
ROANOKE        FAIR      30   1  29 NW12      30.17R WCI  20
BLACKSBURG     FAIR      27   5  38 W9        30.13R
DUBLIN*        FAIR      29   4  33 NW14G21   30.12R WCI  19
MARION*        FAIR      28   1  30 NW16G25   30.11R WCI  16
HILLSVILLE*    FAIR      27   4  38 NW15      30.05R WCI  15
RICHLANDS*     FAIR      25   1  35 NW3       30.11R
WISE*          FAIR      30   1  29 W6        30.12R
ABINGDON*      FAIR      34  12  39 NW10      30.13R
$$

MDZ021>025-VAZ099-100-112300-
SOUTHERN MARYLAND AND THE DELMARVA PENINSULA

CITY           SKY/WX    TMP DP  RH WIND       PRES   REMARKS
PATUXENT RIVER PTCLDY    30   1  29 NW16G26   30.16R WCI  19
BAY BRIDGE APT   N/A     28   3  34 W20G25    30.18R WCI  15
LEONARDTOWN    CLEAR     30   0  27 NW7       30.18R
DOVER          PTCLDY    26   4  39 W21G31    30.12R WCI  11
GEORGETOWN     CLEAR     27   1  32 W16G30    30.14R WCI  15
EASTON         PTCLDY    27   3  36 NW12G23   30.19R WCI  16
CAMBRIDGE      CLEAR     28   3  34 NW13G23   30.16R WCI  18
SALISBURY      CLEAR     28   5  37 NW21G28   30.14R WCI  15
OCEAN CITY     CLEAR     28   2  32 NW13G24   30.13R WCI  17
WALLOPS ISLAND FAIR      30   5  34 NW13G23   30.14R WCI  20
ACCOMACK*      FAIR      30   9  40 NW8       30.15R
$$

NCZ012>017-030>032-112300-
NORTH CENTRAL AND EASTERN NORTH CAROLINA

CITY           SKY/WX    TMP DP  RH WIND       PRES   REMARKS
ROANOKE RAPIDS FAIR      36   5  27 NW7       30.17R
RALEIGH        PTCLDY    40   9  28 NW6       30.17R
ELIZABETH CITY CLEAR     35   8  32 W10       30.18R
AHOSKIE*       CLEAR     35   4  26 NW6       30.18R
EDENTON*       CLEAR     38   7  27 NW9G17    30.18R
CURRITUCK*     CLEAR     36   8  31 NW5       30.18R
KILL DEVIL HLS CLEAR     36   8  32 W7        30.17R
MANTEO         CLEAR     35  10  34 NW7G16    30.18R
CAPE HATTERAS  CLEAR     38  13  35 W8G17     30.18R
TARBORO*       FAIR      39   7  26 W12       30.19R
GOLDSBORO      CLEAR     41   9  26 NW8       30.16R
WASHINGTON     CLEAR     38   7  27 NW8       30.19R
GREENVILLE     CLEAR     39   5  24 NW6       30.19R
NEW BERN       CLEAR     41  10  28 W9G17     30.20R
WILMINGTON     CLEAR     47  17  30 NW6       30.18R
$$

VAZ048-112300-
ELSEWHERE

CITY           SKY/WX    TMP DP  RH WIND       PRES   REMARKS
HARRISBURG PA  MOCLDY    23   4  44 NW22G29   30.12R WCI   8
BALTIMORE      PTCLDY    25   0  33 W18G29    30.17R WCI  11
ANNAPOLIS      CLEAR     27   4  37 NW14G22   30.18R WCI  16
ANDREWS AFB    FAIR      26  -1  31 NW21G28   30.17R WCI  11
PHILADELPHIA   MOCLDY    26  -1  31 W16G29    30.11R WCI  14
HENDERSON NC   CLEAR     37  -1  20 NW5       30.16R
GREENSBORO     PTCLDY    39  10  30 W6        30.13R
ROCKY MOUNT    CLEAR     39   5  24 W12       30.18R
$$

VAZ100-112300-
MARINE

STATION/POSITION TIME  TEMP    WIND        PRES    WAVE   SWELL
                       AIR SEA DIR/SP/G            HT/PER HT/PER
                 (UTC) (F)     (DEG/KT/KT) (MB)    (FT/S) (FT/S)
BRANDYWINE LGT   2100   26     320/ 24/ 30 1018.8R
CAPE MAY NJ      2100   26 38  300/ 27/ 36 1018.4R
LEWES DE         2100   27 38  310/ 27/ 31 1018.9R
15NM E FENWICK I 2150   29 43              1019.4R   6/ 5
OCEAN-CITY-INLET 2100   29 39  320/ 17/ 21 1018.8R
WACHAPREAGUE VA  2100   32 40  300/  3/  9 1020.4R
THOMAS POINT MD  2100   27 38  310/ 22/ 26 1020.8
GOOSES REEF MD   2200   29 38  320/ 19/ 25 1022.3R   3/ 3
COVE POINT MD    2100   28     340/ 16/ 24 1021.0R
SOLOMONS ISLAND  2100   30 40  310/ 11/ 18   N/A
BISHOPS HEAD MD  2100   30 35  290/ 19/ 24 1019.5R
PINEY POINT MD   2100          330/ 20/ 24   N/A
POTOMAC MD       2200   31 39  320/ 17/ 21 1020.1R   2/ 3
CAMBRIDGE MD     2100   28 38  300/ 17/ 25 1019.7R
LEWISETTA VA     2100   32 39  330/ 10/ 13 1020.4R
RAPPAHANNOCK LGT 2100          280/ 15/ 19 1020.7R
STINGRAY PT      2200   33 41  300/ 17/ 23 1021.0R   1/ 2
YORK RVR RNG VA  2100   32     310/ 18/ 21 1020.0R
YORKTOWN VA      2100   33 42  300/ 15/ 19 1020.4R
JAMESTOWN VA     2200   34 42  300/ 14/ 19   N/A
DOMINION TERM VA 2100   34     310/ 16/ 19 1020.5R
KIPTOPEKE VA     2100      40  310/ 16/ 21   N/A
CHES BAY BRIDGE  2100   32 42  270/ 15/ 18 1020.4R
CAPE HENRY VA    2100   32     280/ 15/ 19   N/A
CHESAPEAKE LGHT  2100   32     300/ 14/ 16 1021.6R
WILLOUBY STN VA  2100   33     300/ 10/ 13 1021.5R
CAPE HENRY BUOY  2128      43                N/A     3/ 3
1ST LANDING BUOY 2200      41                N/A     2/ 3
CAPE CHARLES BUO 2126      42                N/A     2/11   2/11
OFFSHORE WE BUOY 2121      45                N/A     4/ 5   2/12
64NM E OF VA BCH 2150   33 48  300/ 19/ 25 1021.0R   6/ 6   2/ 9
DUCK PIER NC     2100   35     290/ 12/ 20 1020.4R
44100 DUCK FRF   2124      46                N/A     3/ 4
44056 DUCK FRF   2111      44                N/A     2/12
OREGON INLET NC  2100   35 41  290/ 10/ 17 1021.3R
HATTERAS NC      2100   37 45  280/ 17/ 19 1021.3R
DIAMOND SHLS NC  2150   39 57  290/ 17/ 21 1022.2R   5/ 4   2/ 8
$$



USA.gov is the U.S. government's official web portal to all federal, state and local government web resources and services.